This is the latest recevied weather packets stored in our database for station/object WS2Z. If no packets are shown the sender has not sent any weather packets the latest 10 day(s).
| Time | Temp. | Humidity | Pressure | Rain* | Wind** | Luminosity | Snow |
|---|---|---|---|---|---|---|---|
| 1777203549 | 21.11° C | 92% | 1012.9 hPa | 0 mm | - | 45 W/m² | - |
| 1777203245 | 20.56° C | 92% | 1013 hPa | 0 mm | - | 33 W/m² | - |
| 1777202942 | 20.56° C | 93% | 1012.8 hPa | 0 mm | - | 26 W/m² | - |
| 1777202642 | 20.56° C | 93% | 1012.8 hPa | 0 mm | - | 19 W/m² | - |
| 1777202336 | 20.56° C | 94% | 1012.5 hPa | 0 mm | - | 15 W/m² | - |
| 1777202032 | 20.56° C | 94% | 1012.7 hPa | 0 mm | - | 10 W/m² | - |
| 1777201729 | 20.56° C | 94% | 1012.7 hPa | 0 mm | - | 8 W/m² | - |
| 1777201425 | 20.56° C | 94% | 1012.5 hPa | 0 mm | - | 5 W/m² | - |
| 1777201120 | 20.56° C | 94% | 1012.6 hPa | 0 mm | - | 3 W/m² | - |
| 1777200817 | 20.56° C | 94% | 1012.6 hPa | 0 mm | - | 2 W/m² | - |
| 1777200512 | 20.56° C | 94% | 1012.4 hPa | 0 mm | - | 1 W/m² | - |
| 1777200207 | 20.56° C | 94% | 1012.2 hPa | 0 mm | - | 0 W/m² | - |
| 1777199905 | 20.56° C | 94% | 1012.1 hPa | 0 mm | - | 0 W/m² | - |
| 1777199604 | 20.56° C | 94% | 1012.3 hPa | 0 mm | - | 0 W/m² | - |
| 1777199300 | 20.56° C | 93% | 1011.9 hPa | 0 mm | - | 0 W/m² | - |
| 1777198999 | 20.56° C | 93% | 1012 hPa | 0 mm | - | 0 W/m² | - |
| 1777198695 | 20.56° C | 93% | 1011.8 hPa | 0 mm | - | 0 W/m² | - |
| 1777198394 | 20.56° C | 93% | 1012 hPa | 0 mm | - | 0 W/m² | - |
| 1777198090 | 20.56° C | 93% | 1012 hPa | 0 mm | - | 0 W/m² | - |
| 1777197790 | 20.56° C | 93% | 1011.7 hPa | 0 mm | - | 0 W/m² | - |
| 1777197486 | 20.56° C | 93% | 1011.8 hPa | 0 mm | - | 0 W/m² | - |
| 1777197183 | 20.56° C | 93% | 1011.6 hPa | 0 mm | - | 0 W/m² | - |
| 1777196879 | 20.56° C | 93% | 1011.7 hPa | 0 mm | - | 0 W/m² | - |
| 1777196574 | 20.56° C | 93% | 1011.8 hPa | 0 mm | - | 0 W/m² | - |
| 1777196272 | 20.56° C | 93% | 1011.9 hPa | 0 mm | - | 0 W/m² | - |
* Rain latest hour (hover to see other rain measurements)
** Current wind speed in m/s (hover to see current wind gust speed)